Year,Month,Day,Hour,Minute,Value (Times are PST for temperature in C)
2019,03,28,00,00,8.00
2019,03,28,00,01,8.00
2019,03,28,00,02,8.00
2019,03,28,00,03,8.00
2019,03,28,00,04,8.00
2019,03,28,00,05,8.00
2019,03,28,00,06,8.00
2019,03,28,00,07,8.00
2019,03,28,00,08,8.00
2019,03,28,00,09,8.00
2019,03,28,00,10,8.00
2019,03,28,00,11,8.00
2019,03,28,00,12,8.00
2019,03,28,00,13,8.00
2019,03,28,00,14,8.00
2019,03,28,00,15,8.00
2019,03,28,00,16,8.00
2019,03,28,00,17,8.00
2019,03,28,00,18,8.00
2019,03,28,00,19,8.00
2019,03,28,00,20,8.00
2019,03,28,00,21,8.00
2019,03,28,00,22,8.00
2019,03,28,00,23,8.00
2019,03,28,00,24,8.00
2019,03,28,00,25,8.00
2019,03,28,00,26,8.00
2019,03,28,00,27,8.10
2019,03,28,00,28,8.10
2019,03,28,00,29,8.10
2019,03,28,00,30,8.10
2019,03,28,00,31,8.10
2019,03,28,00,32,8.10
2019,03,28,00,33,8.10
2019,03,28,00,34,8.10
2019,03,28,00,35,8.10
2019,03,28,00,36,8.10
2019,03,28,00,37,8.10
2019,03,28,00,38,8.10
2019,03,28,00,39,8.10
2019,03,28,00,40,8.10
2019,03,28,00,41,8.10
2019,03,28,00,42,8.10
2019,03,28,00,43,8.20
2019,03,28,00,44,8.20
2019,03,28,00,45,8.20
2019,03,28,00,46,8.20
2019,03,28,00,47,8.20
2019,03,28,00,48,8.20
2019,03,28,00,49,8.20
2019,03,28,00,50,8.20
2019,03,28,00,51,8.30
2019,03,28,00,52,8.30
2019,03,28,00,53,8.30
2019,03,28,00,54,8.30
2019,03,28,00,55,8.30
2019,03,28,00,56,8.30
2019,03,28,00,57,8.30
2019,03,28,00,58,8.30
2019,03,28,00,59,8.30
2019,03,28,01,00,8.30
2019,03,28,01,01,8.30
2019,03,28,01,02,8.30
2019,03,28,01,03,8.30
2019,03,28,01,04,8.40
2019,03,28,01,05,8.40
2019,03,28,01,06,8.40
2019,03,28,01,07,8.40
2019,03,28,01,08,8.40
2019,03,28,01,09,8.30
2019,03,28,01,10,8.40
2019,03,28,01,11,8.30
2019,03,28,01,12,8.30
2019,03,28,01,13,8.40
2019,03,28,01,14,8.40
2019,03,28,01,15,8.30
2019,03,28,01,16,8.40
2019,03,28,01,17,8.40
2019,03,28,01,18,8.40
2019,03,28,01,19,8.40
2019,03,28,01,20,8.50
2019,03,28,01,21,8.50
2019,03,28,01,22,8.50
2019,03,28,01,23,8.50
2019,03,28,01,24,8.50
2019,03,28,01,25,8.50
2019,03,28,01,26,8.50
2019,03,28,01,27,8.60
2019,03,28,01,28,8.60
2019,03,28,01,29,8.60
2019,03,28,01,30,8.60
2019,03,28,01,31,8.70
2019,03,28,01,32,8.70
2019,03,28,01,33,8.70
2019,03,28,01,34,8.80
2019,03,28,01,35,8.80
2019,03,28,01,36,8.80
2019,03,28,01,37,8.80
2019,03,28,01,38,8.80
2019,03,28,01,39,8.80
2019,03,28,01,40,8.90
2019,03,28,01,41,8.90
2019,03,28,01,42,8.90
2019,03,28,01,43,8.90
2019,03,28,01,44,8.90
2019,03,28,01,45,8.90
2019,03,28,01,46,8.90
2019,03,28,01,47,8.90
2019,03,28,01,48,9.00
2019,03,28,01,49,9.00
2019,03,28,01,50,9.00
2019,03,28,01,51,9.00
2019,03,28,01,52,9.10
2019,03,28,01,53,9.10
2019,03,28,01,54,9.10
2019,03,28,01,55,9.10
2019,03,28,01,56,9.10
2019,03,28,01,57,9.10
2019,03,28,01,58,9.10
2019,03,28,01,59,9.10
2019,03,28,02,00,9.10
2019,03,28,02,01,9.10
2019,03,28,02,02,9.20
2019,03,28,02,03,9.20
2019,03,28,02,04,9.20
2019,03,28,02,05,9.20
2019,03,28,02,06,9.20
2019,03,28,02,07,9.20
2019,03,28,02,08,9.20
2019,03,28,02,09,9.20
2019,03,28,02,10,9.20
2019,03,28,02,11,9.20
2019,03,28,02,12,9.20
2019,03,28,02,13,9.20
2019,03,28,02,14,9.30
2019,03,28,02,15,9.20
2019,03,28,02,16,9.20
2019,03,28,02,17,9.20
2019,03,28,02,18,9.20
2019,03,28,02,19,9.20
2019,03,28,02,20,9.20
2019,03,28,02,21,9.20
2019,03,28,02,22,9.20
2019,03,28,02,23,9.20
2019,03,28,02,24,9.20
2019,03,28,02,25,9.20
2019,03,28,02,26,9.20
2019,03,28,02,27,9.20
2019,03,28,02,28,9.20
2019,03,28,02,29,9.20
2019,03,28,02,30,9.20
2019,03,28,02,31,9.20
2019,03,28,02,32,9.20
2019,03,28,02,33,9.20
2019,03,28,02,34,9.20
2019,03,28,02,35,9.20
2019,03,28,02,36,9.20
2019,03,28,02,37,9.30
2019,03,28,02,38,9.30
2019,03,28,02,39,9.30
2019,03,28,02,40,9.30
2019,03,28,02,41,9.30
2019,03,28,02,42,9.30
2019,03,28,02,43,9.30
2019,03,28,02,44,9.30
2019,03,28,02,45,9.30
2019,03,28,02,46,9.30
2019,03,28,02,47,9.30
2019,03,28,02,48,9.30
2019,03,28,02,49,9.30
2019,03,28,02,50,9.30
2019,03,28,02,51,9.30
2019,03,28,02,52,9.30
2019,03,28,02,53,9.30
2019,03,28,02,54,9.30
2019,03,28,02,55,9.30
2019,03,28,02,56,9.30
2019,03,28,02,57,9.30
2019,03,28,02,58,9.30
2019,03,28,02,59,9.30
2019,03,28,03,00,9.30
2019,03,28,03,01,9.30
2019,03,28,03,02,9.40
2019,03,28,03,03,9.40
2019,03,28,03,04,9.40
2019,03,28,03,05,9.40
2019,03,28,03,06,9.40
2019,03,28,03,07,9.40
2019,03,28,03,08,9.40
2019,03,28,03,09,9.40
2019,03,28,03,10,9.40
2019,03,28,03,11,9.40
2019,03,28,03,12,9.40
2019,03,28,03,13,9.30
2019,03,28,03,14,9.30
2019,03,28,03,15,9.30
2019,03,28,03,16,9.30
2019,03,28,03,17,9.30
2019,03,28,03,18,9.30
2019,03,28,03,19,9.30
2019,03,28,03,20,9.30
2019,03,28,03,21,9.30
2019,03,28,03,22,9.20
2019,03,28,03,23,9.20
2019,03,28,03,24,9.20
2019,03,28,03,25,9.20
2019,03,28,03,26,9.20
2019,03,28,03,27,9.10
2019,03,28,03,28,9.10
2019,03,28,03,29,9.10
2019,03,28,03,30,9.10
2019,03,28,03,31,9.00
2019,03,28,03,32,9.00
2019,03,28,03,33,9.00
2019,03,28,03,34,9.00
2019,03,28,03,35,8.90
2019,03,28,03,36,8.90
2019,03,28,03,37,8.90
2019,03,28,03,38,8.90
2019,03,28,03,39,8.80
2019,03,28,03,40,8.80
2019,03,28,03,41,8.80
2019,03,28,03,42,8.80
2019,03,28,03,43,8.70
2019,03,28,03,44,8.70
2019,03,28,03,45,8.70
2019,03,28,03,46,8.60
2019,03,28,03,47,8.60
2019,03,28,03,48,8.60
2019,03,28,03,49,8.50
2019,03,28,03,50,8.50
2019,03,28,03,51,8.40
2019,03,28,03,52,8.40
2019,03,28,03,53,8.30
2019,03,28,03,54,8.30
2019,03,28,03,55,8.30
2019,03,28,03,56,8.30
2019,03,28,03,57,8.20
2019,03,28,03,58,8.20
2019,03,28,03,59,8.20
2019,03,28,04,00,8.10
2019,03,28,04,01,8.10
2019,03,28,04,02,8.10
2019,03,28,04,03,8.00
2019,03,28,04,04,8.00
2019,03,28,04,05,8.00
2019,03,28,04,06,7.90
2019,03,28,04,07,7.90
2019,03,28,04,08,7.90
2019,03,28,04,09,7.80
2019,03,28,04,10,7.80
2019,03,28,04,11,7.80
2019,03,28,04,12,7.80
2019,03,28,04,13,7.80
2019,03,28,04,14,7.70
2019,03,28,04,15,7.70
2019,03,28,04,16,7.70
2019,03,28,04,17,7.70
2019,03,28,04,18,7.70
2019,03,28,04,19,7.70
2019,03,28,04,20,7.60
2019,03,28,04,21,7.60
2019,03,28,04,22,7.60
2019,03,28,04,23,7.60
2019,03,28,04,24,7.60
2019,03,28,04,25,7.60
2019,03,28,04,26,7.60
2019,03,28,04,27,7.50
2019,03,28,04,28,7.50
2019,03,28,04,29,7.50
2019,03,28,04,30,7.50
2019,03,28,04,31,7.50
2019,03,28,04,32,7.60
2019,03,28,04,33,7.60
2019,03,28,04,34,7.60
2019,03,28,04,35,7.60
2019,03,28,04,36,7.60
2019,03,28,04,37,7.60
2019,03,28,04,38,7.70
2019,03,28,04,39,7.70
2019,03,28,04,40,7.70
2019,03,28,04,41,7.70
2019,03,28,04,42,7.70
2019,03,28,04,43,7.70
2019,03,28,04,44,7.70
2019,03,28,04,45,7.80
2019,03,28,04,46,7.80
2019,03,28,04,47,7.80
2019,03,28,04,48,7.80
2019,03,28,04,49,7.80
2019,03,28,04,50,7.80
2019,03,28,04,51,7.80
2019,03,28,04,52,7.80
2019,03,28,04,53,7.80
2019,03,28,04,54,7.80
2019,03,28,04,55,7.80
2019,03,28,04,56,7.80
2019,03,28,04,57,7.80
2019,03,28,04,58,7.80
2019,03,28,04,59,7.80
2019,03,28,05,00,7.80
2019,03,28,05,01,7.80
2019,03,28,05,02,7.80
2019,03,28,05,03,7.80
2019,03,28,05,04,7.80
2019,03,28,05,05,7.80
2019,03,28,05,06,7.80
2019,03,28,05,07,7.80
2019,03,28,05,08,7.80
2019,03,28,05,09,7.80
2019,03,28,05,10,7.80
2019,03,28,05,11,7.80
2019,03,28,05,12,7.80
2019,03,28,05,13,7.80
2019,03,28,05,14,7.70
2019,03,28,05,15,7.70
2019,03,28,05,16,7.70
2019,03,28,05,17,7.70
2019,03,28,05,18,7.70
2019,03,28,05,19,7.70
2019,03,28,05,20,7.60
2019,03,28,05,21,7.60
2019,03,28,05,22,7.60
2019,03,28,05,23,7.60
2019,03,28,05,24,7.60
2019,03,28,05,25,7.60
2019,03,28,05,26,7.50
2019,03,28,05,27,7.50
2019,03,28,05,28,7.50
2019,03,28,05,29,7.40
2019,03,28,05,30,7.40
2019,03,28,05,31,7.40
2019,03,28,05,32,7.40
2019,03,28,05,33,7.40
2019,03,28,05,34,7.40
2019,03,28,05,35,7.40
2019,03,28,05,36,7.40
2019,03,28,05,37,7.30
2019,03,28,05,38,7.30
2019,03,28,05,39,7.30
2019,03,28,05,40,7.30
2019,03,28,05,41,7.30
2019,03,28,05,42,7.30
2019,03,28,05,43,7.30
2019,03,28,05,44,7.30
2019,03,28,05,45,7.30
2019,03,28,05,46,7.20
2019,03,28,05,47,7.20
2019,03,28,05,48,7.20
2019,03,28,05,49,7.20
2019,03,28,05,50,7.20
2019,03,28,05,51,7.10
2019,03,28,05,52,7.10
2019,03,28,05,53,7.10
2019,03,28,05,54,7.10
2019,03,28,05,55,7.10
2019,03,28,05,56,7.10
2019,03,28,05,57,7.00
2019,03,28,05,58,7.00
2019,03,28,05,59,7.00
2019,03,28,06,00,7.00
2019,03,28,06,01,7.00
2019,03,28,06,02,7.00
2019,03,28,06,03,6.90
2019,03,28,06,04,6.90
2019,03,28,06,05,6.90
2019,03,28,06,06,6.90
2019,03,28,06,07,6.90
2019,03,28,06,08,6.90
2019,03,28,06,09,6.90
2019,03,28,06,10,6.80
2019,03,28,06,11,6.80
2019,03,28,06,12,6.80
2019,03,28,06,13,6.80
2019,03,28,06,14,6.80
2019,03,28,06,15,6.80
2019,03,28,06,16,6.80
2019,03,28,06,17,6.80
2019,03,28,06,18,6.80
2019,03,28,06,19,6.80
2019,03,28,06,20,6.80
2019,03,28,06,21,6.80
2019,03,28,06,22,6.70
2019,03,28,06,23,6.70
2019,03,28,06,24,6.70
2019,03,28,06,25,6.70
2019,03,28,06,26,6.70
2019,03,28,06,27,6.70
2019,03,28,06,28,6.70
2019,03,28,06,29,6.70
2019,03,28,06,30,6.70
2019,03,28,06,31,6.70
2019,03,28,06,32,6.70
2019,03,28,06,33,6.70
2019,03,28,06,34,6.70
2019,03,28,06,35,6.70
2019,03,28,06,36,6.70
2019,03,28,06,37,6.70
2019,03,28,06,38,6.70
2019,03,28,06,39,6.70
2019,03,28,06,40,6.70
2019,03,28,06,41,6.70
2019,03,28,06,42,6.80
2019,03,28,06,43,6.80
2019,03,28,06,44,6.80
2019,03,28,06,45,6.80
2019,03,28,06,46,6.80
2019,03,28,06,47,6.80
2019,03,28,06,48,6.90
2019,03,28,06,49,6.90
2019,03,28,06,50,6.90
2019,03,28,06,51,6.90
2019,03,28,06,52,6.90
2019,03,28,06,53,6.90
2019,03,28,06,54,6.90
2019,03,28,06,55,6.90
2019,03,28,06,56,6.90
2019,03,28,06,57,6.90
2019,03,28,06,58,6.90
2019,03,28,06,59,7.00
2019,03,28,07,00,7.00
2019,03,28,07,01,7.00
2019,03,28,07,02,7.00
2019,03,28,07,03,7.00
2019,03,28,07,04,7.00
2019,03,28,07,05,7.00
2019,03,28,07,06,7.00
2019,03,28,07,07,7.00
2019,03,28,07,08,7.00
2019,03,28,07,09,7.10
2019,03,28,07,10,7.10
2019,03,28,07,11,7.10
2019,03,28,07,12,7.10
2019,03,28,07,13,7.10
2019,03,28,07,14,7.10
2019,03,28,07,15,7.10
2019,03,28,07,16,7.10
2019,03,28,07,17,7.10
2019,03,28,07,18,7.20
2019,03,28,07,19,7.20
2019,03,28,07,20,7.20
2019,03,28,07,21,7.20
2019,03,28,07,22,7.20
2019,03,28,07,23,7.20
2019,03,28,07,24,7.20
2019,03,28,07,25,7.30
2019,03,28,07,26,7.30
2019,03,28,07,27,7.30
2019,03,28,07,28,7.30
2019,03,28,07,29,7.30
2019,03,28,07,30,7.30
2019,03,28,07,31,7.30
2019,03,28,07,32,7.40
2019,03,28,07,33,7.40
2019,03,28,07,34,7.40
2019,03,28,07,35,7.40
2019,03,28,07,36,7.40
2019,03,28,07,37,7.40
2019,03,28,07,38,7.40
2019,03,28,07,39,7.50
2019,03,28,07,40,7.50
2019,03,28,07,41,7.50
2019,03,28,07,42,7.50
2019,03,28,07,43,7.60
2019,03,28,07,44,7.60
2019,03,28,07,45,7.60
2019,03,28,07,46,7.60
2019,03,28,07,47,7.60
2019,03,28,07,48,7.60
2019,03,28,07,49,7.60
2019,03,28,07,50,7.60
2019,03,28,07,51,7.60
2019,03,28,07,52,7.60
2019,03,28,07,53,7.60
2019,03,28,07,54,7.70
2019,03,28,07,55,7.70
2019,03,28,07,56,7.70
2019,03,28,07,57,7.70
2019,03,28,07,58,7.70
2019,03,28,07,59,7.70
2019,03,28,08,00,7.70
2019,03,28,08,01,7.70
2019,03,28,08,02,7.70
2019,03,28,08,03,7.70
2019,03,28,08,04,7.80
2019,03,28,08,05,7.70
2019,03,28,08,06,7.80
2019,03,28,08,07,7.80
2019,03,28,08,08,7.80
2019,03,28,08,09,7.80
2019,03,28,08,10,7.80
2019,03,28,08,11,7.80
2019,03,28,08,12,7.90
2019,03,28,08,13,7.90
2019,03,28,08,14,7.90
2019,03,28,08,15,7.90
2019,03,28,08,16,7.90
2019,03,28,08,17,8.00
2019,03,28,08,18,8.00
2019,03,28,08,19,8.00
2019,03,28,08,20,8.00
2019,03,28,08,21,8.10
2019,03,28,08,22,8.10
2019,03,28,08,23,8.10
2019,03,28,08,24,8.10
2019,03,28,08,25,8.20
2019,03,28,08,26,8.20
2019,03,28,08,27,8.20
2019,03,28,08,28,8.20
2019,03,28,08,29,8.20
2019,03,28,08,30,8.30
2019,03,28,08,31,8.30
2019,03,28,08,32,8.30
2019,03,28,08,33,8.30
2019,03,28,08,34,8.30
2019,03,28,08,35,8.30
2019,03,28,08,36,8.30
2019,03,28,08,37,8.40
2019,03,28,08,38,8.40
2019,03,28,08,39,8.50
2019,03,28,08,40,8.60
2019,03,28,08,41,8.60
2019,03,28,08,42,8.70
2019,03,28,08,43,8.80
2019,03,28,08,44,8.80
2019,03,28,08,45,8.90
2019,03,28,08,46,8.90
2019,03,28,08,47,9.00
2019,03,28,08,48,9.00
2019,03,28,08,49,9.00
2019,03,28,08,50,9.10
2019,03,28,08,51,9.20
2019,03,28,08,52,9.20
2019,03,28,08,53,9.30
2019,03,28,08,54,9.40
2019,03,28,08,55,9.40
2019,03,28,08,56,9.50
2019,03,28,08,57,9.60
2019,03,28,08,58,9.70
2019,03,28,08,59,9.80
2019,03,28,09,00,9.90
2019,03,28,09,01,10.10
2019,03,28,09,02,10.20
2019,03,28,09,03,10.30
2019,03,28,09,04,10.30
2019,03,28,09,05,10.40
2019,03,28,09,06,10.50
2019,03,28,09,07,10.70
2019,03,28,09,08,10.70
2019,03,28,09,09,10.80
2019,03,28,09,10,10.90
2019,03,28,09,11,11.00
2019,03,28,09,12,11.00
2019,03,28,09,13,11.00
2019,03,28,09,14,11.00
2019,03,28,09,15,11.00
2019,03,28,09,16,11.00
2019,03,28,09,17,11.00
2019,03,28,09,18,10.90
2019,03,28,09,19,10.90
2019,03,28,09,20,10.90
2019,03,28,09,21,10.90
2019,03,28,09,22,10.90
2019,03,28,09,23,10.90
2019,03,28,09,24,10.80
2019,03,28,09,25,10.80
2019,03,28,09,26,10.80
2019,03,28,09,27,10.70
2019,03,28,09,28,10.70
2019,03,28,09,29,10.70
2019,03,28,09,30,10.70
2019,03,28,09,31,10.70
2019,03,28,09,32,10.70
2019,03,28,09,33,10.80
2019,03,28,09,34,10.80
2019,03,28,09,35,10.80
2019,03,28,09,36,10.90
2019,03,28,09,37,11.00
2019,03,28,09,38,11.10
2019,03,28,09,39,11.10
2019,03,28,09,40,11.20
2019,03,28,09,41,11.30
2019,03,28,09,42,11.40
2019,03,28,09,43,11.50
2019,03,28,09,44,11.60
2019,03,28,09,45,11.60
2019,03,28,09,46,11.80
2019,03,28,09,47,11.90
2019,03,28,09,48,12.00
2019,03,28,09,49,12.10
2019,03,28,09,50,12.20
2019,03,28,09,51,12.20
2019,03,28,09,52,12.20
2019,03,28,09,53,12.10
2019,03,28,09,54,11.90
2019,03,28,09,55,11.80
2019,03,28,09,56,11.70
2019,03,28,09,57,11.60
2019,03,28,09,58,11.60
2019,03,28,09,59,11.60
2019,03,28,10,00,11.60
2019,03,28,10,01,11.70
2019,03,28,10,02,11.80
2019,03,28,10,03,11.90
2019,03,28,10,04,11.90
2019,03,28,10,05,12.00
2019,03,28,10,06,12.10
2019,03,28,10,07,12.10
2019,03,28,10,08,12.20
2019,03,28,10,09,12.20
2019,03,28,10,10,12.20
2019,03,28,10,11,12.20
2019,03,28,10,12,12.30
2019,03,28,10,13,12.30
2019,03,28,10,14,12.40
2019,03,28,10,15,12.40
2019,03,28,10,16,12.40
2019,03,28,10,17,12.50
2019,03,28,10,18,12.50
2019,03,28,10,19,12.60
2019,03,28,10,20,12.60
2019,03,28,10,21,12.70
2019,03,28,10,22,12.80
2019,03,28,10,23,12.80
2019,03,28,10,24,12.80
2019,03,28,10,25,12.90
2019,03,28,10,26,12.90
2019,03,28,10,27,12.80
2019,03,28,10,28,12.80
2019,03,28,10,29,12.90
2019,03,28,10,30,12.80
2019,03,28,10,31,12.90
2019,03,28,10,32,12.80
2019,03,28,10,33,12.80
2019,03,28,10,34,12.90
2019,03,28,10,35,12.80
2019,03,28,10,36,12.80
2019,03,28,10,37,12.90
2019,03,28,10,38,12.90
2019,03,28,10,39,12.80
2019,03,28,10,40,12.80
2019,03,28,10,41,12.80
2019,03,28,10,42,12.80
2019,03,28,10,43,12.70
2019,03,28,10,44,12.70
2019,03,28,10,45,12.70
2019,03,28,10,46,12.80
2019,03,28,10,47,12.80
2019,03,28,10,48,12.80
2019,03,28,10,49,12.90
2019,03,28,10,50,12.90
2019,03,28,10,51,12.90
2019,03,28,10,52,12.90
2019,03,28,10,53,12.90
2019,03,28,10,54,12.90
2019,03,28,10,55,12.90
2019,03,28,10,56,12.90
2019,03,28,10,57,12.90
2019,03,28,10,58,12.90
2019,03,28,10,59,12.90
2019,03,28,11,00,13.00
2019,03,28,11,01,13.00
2019,03,28,11,02,13.00
2019,03,28,11,03,13.10
2019,03,28,11,04,13.10
2019,03,28,11,05,13.00
2019,03,28,11,06,13.00
2019,03,28,11,07,13.00
2019,03,28,11,08,12.90
2019,03,28,11,09,12.90
2019,03,28,11,10,12.90
2019,03,28,11,11,12.90
2019,03,28,11,12,13.00
2019,03,28,11,13,13.00
2019,03,28,11,14,13.00
2019,03,28,11,15,13.00
2019,03,28,11,16,13.00
2019,03,28,11,17,12.90
2019,03,28,11,18,12.90
2019,03,28,11,19,12.80
2019,03,28,11,20,12.80
2019,03,28,11,21,12.80
2019,03,28,11,22,12.80
2019,03,28,11,23,12.80
2019,03,28,11,24,12.80
2019,03,28,11,25,12.80
2019,03,28,11,26,12.80
2019,03,28,11,27,12.80
2019,03,28,11,28,12.80
2019,03,28,11,29,12.80
2019,03,28,11,30,12.80
2019,03,28,11,31,12.90
2019,03,28,11,32,12.90
2019,03,28,11,33,12.90
2019,03,28,11,34,12.90
2019,03,28,11,35,13.00
2019,03,28,11,36,13.00
2019,03,28,11,37,13.00
2019,03,28,11,38,13.00
2019,03,28,11,39,13.10
2019,03,28,11,40,13.20
2019,03,28,11,41,13.20
2019,03,28,11,42,13.20
2019,03,28,11,43,13.20
2019,03,28,11,44,13.20
2019,03,28,11,45,13.20
2019,03,28,11,46,13.20
2019,03,28,11,47,13.10
2019,03,28,11,48,13.10
2019,03,28,11,49,13.00
2019,03,28,11,50,13.00
2019,03,28,11,51,12.90
2019,03,28,11,52,12.80
2019,03,28,11,53,12.80
2019,03,28,11,54,12.80
2019,03,28,11,55,12.70
2019,03,28,11,56,12.70
2019,03,28,11,57,12.70
2019,03,28,11,58,12.70
2019,03,28,11,59,12.70
2019,03,28,12,00,12.70
2019,03,28,12,01,12.60
2019,03,28,12,02,12.60
2019,03,28,12,03,12.60
2019,03,28,12,04,12.50
2019,03,28,12,05,12.50
2019,03,28,12,06,12.50
2019,03,28,12,07,12.50
2019,03,28,12,08,12.40
2019,03,28,12,09,12.50
2019,03,28,12,10,12.50
2019,03,28,12,11,12.40
2019,03,28,12,12,12.40
2019,03,28,12,13,12.40
2019,03,28,12,14,12.50
2019,03,28,12,15,12.50
2019,03,28,12,16,12.50
2019,03,28,12,17,12.60
2019,03,28,12,18,12.60
2019,03,28,12,19,12.60
2019,03,28,12,20,12.60
2019,03,28,12,21,12.50
2019,03,28,12,22,12.50
2019,03,28,12,23,12.50
2019,03,28,12,24,12.40
2019,03,28,12,25,12.40
2019,03,28,12,26,12.40
2019,03,28,12,27,12.40
2019,03,28,12,28,12.40
2019,03,28,12,29,12.40
2019,03,28,12,30,12.40
2019,03,28,12,31,12.40
2019,03,28,12,32,12.40
2019,03,28,12,33,12.40
2019,03,28,12,34,12.40
2019,03,28,12,35,12.40
2019,03,28,12,36,12.40
2019,03,28,12,37,12.30
2019,03,28,12,38,12.40
2019,03,28,12,39,12.40
2019,03,28,12,40,12.50
2019,03,28,12,41,12.60
2019,03,28,12,42,12.70
2019,03,28,12,43,12.80
2019,03,28,12,44,12.90
2019,03,28,12,45,13.00
2019,03,28,12,46,13.10
2019,03,28,12,47,13.20
2019,03,28,12,48,13.20
2019,03,28,12,49,13.30
2019,03,28,12,50,13.30
2019,03,28,12,51,13.30
2019,03,28,12,52,13.30
2019,03,28,12,53,13.30
2019,03,28,12,54,13.40
2019,03,28,12,55,13.40
2019,03,28,12,56,13.40
2019,03,28,12,57,13.50
2019,03,28,12,58,13.50
2019,03,28,12,59,13.60
2019,03,28,13,00,13.60
2019,03,28,13,01,13.70
2019,03,28,13,02,13.70
2019,03,28,13,03,13.70
2019,03,28,13,04,13.70
2019,03,28,13,05,13.70
2019,03,28,13,06,13.70
2019,03,28,13,07,13.80
2019,03,28,13,08,13.80
2019,03,28,13,09,13.70
2019,03,28,13,10,13.70
2019,03,28,13,11,13.70
2019,03,28,13,12,13.70
2019,03,28,13,13,13.70
2019,03,28,13,14,13.70
2019,03,28,13,15,13.70
2019,03,28,13,16,13.80
2019,03,28,13,17,13.80
2019,03,28,13,18,13.80
2019,03,28,13,19,13.80
2019,03,28,13,20,13.80
2019,03,28,13,21,13.80
2019,03,28,13,22,13.80
2019,03,28,13,23,13.70
2019,03,28,13,24,13.70
2019,03,28,13,25,13.60
2019,03,28,13,26,13.60
2019,03,28,13,27,13.70
2019,03,28,13,28,13.70
2019,03,28,13,29,13.70
2019,03,28,13,30,13.80
2019,03,28,13,31,13.80
2019,03,28,13,32,13.80
2019,03,28,13,33,13.80
2019,03,28,13,34,13.90
2019,03,28,13,35,13.90
2019,03,28,13,36,13.90
2019,03,28,13,37,14.00
2019,03,28,13,38,14.10
2019,03,28,13,39,14.10
2019,03,28,13,40,14.20
2019,03,28,13,41,14.30
2019,03,28,13,42,14.30
2019,03,28,13,43,14.40
2019,03,28,13,44,14.40
2019,03,28,13,45,14.50
2019,03,28,13,46,14.50
2019,03,28,13,47,14.60
2019,03,28,13,48,14.60
2019,03,28,13,49,14.60
2019,03,28,13,50,14.70
2019,03,28,13,51,14.70
2019,03,28,13,52,14.80
2019,03,28,13,53,14.80
2019,03,28,13,54,14.90
2019,03,28,13,55,14.90
2019,03,28,13,56,14.90
2019,03,28,13,57,14.80
2019,03,28,13,58,14.80
2019,03,28,13,59,14.80
2019,03,28,14,00,14.80
2019,03,28,14,01,14.90
2019,03,28,14,02,14.90
2019,03,28,14,03,14.90
2019,03,28,14,04,14.90
2019,03,28,14,05,14.90
2019,03,28,14,06,15.00
2019,03,28,14,07,15.10
2019,03,28,14,08,15.10
2019,03,28,14,09,15.20
2019,03,28,14,10,15.20
2019,03,28,14,11,15.30
2019,03,28,14,12,15.30
2019,03,28,14,13,15.30
2019,03,28,14,14,15.40
2019,03,28,14,15,15.40
2019,03,28,14,16,15.40
2019,03,28,14,17,15.50
2019,03,28,14,18,15.60
2019,03,28,14,19,15.60
2019,03,28,14,20,15.70
2019,03,28,14,21,15.80
2019,03,28,14,22,15.80
2019,03,28,14,23,15.90
2019,03,28,14,24,16.00
2019,03,28,14,25,16.10
2019,03,28,14,26,16.10
2019,03,28,14,27,16.20
2019,03,28,14,28,16.20
2019,03,28,14,29,16.20
2019,03,28,14,30,16.20
2019,03,28,14,31,16.30
2019,03,28,14,32,16.30
2019,03,28,14,33,16.30
2019,03,28,14,34,16.30
2019,03,28,14,35,16.30
2019,03,28,14,36,16.40
2019,03,28,14,37,16.40
2019,03,28,14,38,16.40
2019,03,28,14,39,16.40
2019,03,28,14,40,16.40
2019,03,28,14,41,16.20
2019,03,28,14,42,16.10
2019,03,28,14,43,15.90
2019,03,28,14,44,15.90
2019,03,28,14,45,15.80
2019,03,28,14,46,15.80
2019,03,28,14,47,15.80
2019,03,28,14,48,15.70
2019,03,28,14,49,15.70
2019,03,28,14,50,15.70
2019,03,28,14,51,15.70
2019,03,28,14,52,15.70
2019,03,28,14,53,15.60
2019,03,28,14,54,15.60
2019,03,28,14,55,15.60
2019,03,28,14,56,15.50
2019,03,28,14,57,15.50
2019,03,28,14,58,15.50
2019,03,28,14,59,15.40
2019,03,28,15,00,15.40
2019,03,28,15,01,15.40
2019,03,28,15,02,15.50
2019,03,28,15,03,15.50
2019,03,28,15,04,15.60
2019,03,28,15,05,15.60
2019,03,28,15,06,15.70
2019,03,28,15,07,15.80
2019,03,28,15,08,15.80
2019,03,28,15,09,15.90
2019,03,28,15,10,16.00
2019,03,28,15,11,16.00
2019,03,28,15,12,16.00
2019,03,28,15,13,16.00
2019,03,28,15,14,16.10
2019,03,28,15,15,16.00
2019,03,28,15,16,16.00
2019,03,28,15,17,16.00
2019,03,28,15,18,16.00
2019,03,28,15,19,16.00
2019,03,28,15,20,15.90
2019,03,28,15,21,15.80
2019,03,28,15,22,15.80
2019,03,28,15,23,15.70
2019,03,28,15,24,15.60
2019,03,28,15,25,15.60
2019,03,28,15,26,15.60
2019,03,28,15,27,15.60
2019,03,28,15,28,15.50
2019,03,28,15,29,15.50
2019,03,28,15,30,15.50
2019,03,28,15,31,15.60
2019,03,28,15,32,15.60
2019,03,28,15,33,15.70
2019,03,28,15,34,15.70
2019,03,28,15,35,15.70
2019,03,28,15,36,15.80
2019,03,28,15,37,15.80
2019,03,28,15,38,15.80
2019,03,28,15,39,15.90
2019,03,28,15,40,15.90
2019,03,28,15,41,16.00
2019,03,28,15,42,16.10
2019,03,28,15,43,16.20
2019,03,28,15,44,16.20
2019,03,28,15,45,16.30
2019,03,28,15,46,16.30
2019,03,28,15,47,16.30
2019,03,28,15,48,16.30
2019,03,28,15,49,16.30
2019,03,28,15,50,16.40
2019,03,28,15,51,16.40
2019,03,28,15,52,16.30
2019,03,28,15,53,16.20
2019,03,28,15,54,16.10
2019,03,28,15,55,16.00
2019,03,28,15,56,15.90
2019,03,28,15,57,15.80
2019,03,28,15,58,15.70
2019,03,28,15,59,15.70
2019,03,28,16,00,15.70
2019,03,28,16,01,15.60
2019,03,28,16,02,15.60
2019,03,28,16,03,15.60
2019,03,28,16,04,15.60
2019,03,28,16,05,15.50
2019,03,28,16,06,15.50
2019,03,28,16,07,15.50
2019,03,28,16,08,15.60
2019,03,28,16,09,15.60
2019,03,28,16,10,15.70
2019,03,28,16,11,15.80
2019,03,28,16,12,15.90
2019,03,28,16,13,16.00
2019,03,28,16,14,16.00
2019,03,28,16,15,16.10
2019,03,28,16,16,16.20
2019,03,28,16,17,16.20
2019,03,28,16,18,16.30
2019,03,28,16,19,16.40
2019,03,28,16,20,16.50
2019,03,28,16,21,16.70
2019,03,28,16,22,16.70
2019,03,28,16,23,16.80
2019,03,28,16,24,16.80
2019,03,28,16,25,16.80
2019,03,28,16,26,16.90
2019,03,28,16,27,16.90
2019,03,28,16,28,17.00
2019,03,28,16,29,17.00
2019,03,28,16,30,17.10
2019,03,28,16,31,17.10
2019,03,28,16,32,17.10
2019,03,28,16,33,17.20
2019,03,28,16,34,17.30
2019,03,28,16,35,17.30
2019,03,28,16,36,17.30
2019,03,28,16,37,17.40
2019,03,28,16,38,17.40
2019,03,28,16,39,17.50
2019,03,28,16,40,17.50
2019,03,28,16,41,17.60
2019,03,28,16,42,17.60
2019,03,28,16,43,17.60
2019,03,28,16,44,17.60
2019,03,28,16,45,17.60
2019,03,28,16,46,17.70
2019,03,28,16,47,17.70
2019,03,28,16,48,17.70
2019,03,28,16,49,17.70
2019,03,28,16,50,17.70
2019,03,28,16,51,17.70
2019,03,28,16,52,17.70
2019,03,28,16,53,17.80
2019,03,28,16,54,17.80
2019,03,28,16,55,17.80
2019,03,28,16,56,17.80
2019,03,28,16,57,17.80
2019,03,28,16,58,17.80
2019,03,28,16,59,17.80
2019,03,28,17,00,17.80
2019,03,28,17,01,17.80
2019,03,28,17,02,17.70
2019,03,28,17,03,17.80
2019,03,28,17,04,17.80
2019,03,28,17,05,17.80
2019,03,28,17,06,17.80
2019,03,28,17,07,17.80
2019,03,28,17,08,17.80
2019,03,28,17,09,17.80
2019,03,28,17,10,17.80
2019,03,28,17,11,17.80
2019,03,28,17,12,17.80
2019,03,28,17,13,17.90
2019,03,28,17,14,17.90
2019,03,28,17,15,17.90
2019,03,28,17,16,18.00
2019,03,28,17,17,18.00
2019,03,28,17,18,18.10
2019,03,28,17,19,18.20
2019,03,28,17,20,18.20
2019,03,28,17,21,18.20
2019,03,28,17,22,18.30
2019,03,28,17,23,18.30
2019,03,28,17,24,18.40
2019,03,28,17,25,18.40
2019,03,28,17,26,18.40
2019,03,28,17,27,18.40
2019,03,28,17,28,18.40
2019,03,28,17,29,18.40
2019,03,28,17,30,18.40
2019,03,28,17,31,18.40
2019,03,28,17,32,18.40
2019,03,28,17,33,18.40
2019,03,28,17,34,18.40
2019,03,28,17,35,18.40
2019,03,28,17,36,18.40
2019,03,28,17,37,18.20
2019,03,28,17,38,18.00
2019,03,28,17,39,17.90
2019,03,28,17,40,17.70
2019,03,28,17,41,17.50
2019,03,28,17,42,17.30